IGA28D GOBD-EPRZ

Flight info

Callsign IGA28D
Flight time 5h 47m
Altitude 39000
Route SAKLI1B SAKLI DCT NEVDI UR975 ARDAR UA854 SADKA/N0466F410 UA854 BRENA UM986 ZEM/N0467F400 UM986 REQIN DCT ERETI M986 ORKUM DCT MOULE DCT GOVGO DCT OGAPU DCT ROTAR/N0463F410 DCT KEBBU DCT GRZ DCT XENAK DCT NIDOK DCT SUPAK L999 GEVNA L984 LUXAR
Aircraft B762/H-SDE3FGHIM3RWXY/LB1

Departure

Time 2026-04-27 06:34
Airport Blaise Diagne International Airport (GOBD)

Arrival

Time 2026-04-27 12:21
Airport Rzeszów-Jasionka Airport (EPRZ)
Time Latitude Longitude Altitude Speed Heading
2026-04-27 05:57 14.66755 -17.06740 308 ft 0 kts 360°
2026-04-27 06:10 14.66754 -17.06740 308 ft 0 kts 360°
2026-04-27 06:26 14.66744 -17.06740 308 ft 2 kts 358°
2026-04-27 06:26 14.66728 -17.06739 307 ft 2 kts 357°
2026-04-27 06:26 14.66711 -17.06738 306 ft 2 kts 354°
2026-04-27 06:27 14.66695 -17.06736 307 ft 2 kts 348°
2026-04-27 06:27 14.66679 -17.06731 306 ft 2 kts 332°
2026-04-27 06:27 14.66667 -17.06720 307 ft 2 kts 286°
2026-04-27 06:27 14.66665 -17.06709 305 ft 1 kts 271°
2026-04-27 06:30 14.66666 -17.06775 308 ft 17 kts 270°
2026-04-27 06:31 14.66664 -17.06901 311 ft 18 kts 269°
2026-04-27 06:31 14.66664 -17.07033 311 ft 21 kts 266°
2026-04-27 06:31 14.66549 -17.07087 311 ft 21 kts 178°
2026-04-27 06:31 14.66400 -17.07085 307 ft 22 kts 179°
2026-04-27 06:32 14.66239 -17.07082 310 ft 25 kts 178°
2026-04-27 06:32 14.66067 -17.07081 310 ft 25 kts 180°
2026-04-27 06:32 14.65894 -17.07080 309 ft 25 kts 179°
2026-04-27 06:32 14.65718 -17.07078 307 ft 25 kts 179°
2026-04-27 06:33 14.65588 -17.07076 307 ft 9 kts 181°
2026-04-27 06:33 14.65536 -17.07102 307 ft 11 kts 233°
2026-04-27 06:33 14.65530 -17.07212 306 ft 20 kts 281°
2026-04-27 06:33 14.65647 -17.07270 306 ft 20 kts 359°
2026-04-27 06:34 14.66015 -17.07273 305 ft 98 kts 359°
2026-04-27 06:34 14.66969 -17.07276 490 ft 165 kts 359°
2026-04-27 06:34 14.68200 -17.07302 1259 ft 193 kts 358°
2026-04-27 06:34 14.69657 -17.07334 2065 ft 221 kts 358°
2026-04-27 06:35 14.71262 -17.07360 3213 ft 241 kts 358°
2026-04-27 06:35 14.72988 -17.07371 4585 ft 255 kts 357°
2026-04-27 06:35 14.74807 -17.07376 5965 ft 268 kts 357°
2026-04-27 06:35 14.76705 -17.07384 7332 ft 278 kts 357°
2026-04-27 06:36 14.78643 -17.07396 8704 ft 287 kts 357°
2026-04-27 06:36 14.80675 -17.07408 10032 ft 297 kts 357°
2026-04-27 06:36 14.82805 -17.07422 11049 ft 317 kts 357°
2026-04-27 06:36 14.85075 -17.07439 12045 ft 336 kts 357°
2026-04-27 06:37 14.87470 -17.07457 13089 ft 353 kts 357°
2026-04-27 06:37 14.89978 -17.07480 14117 ft 368 kts 357°
2026-04-27 06:37 14.92593 -17.07508 15083 ft 382 kts 357°
2026-04-27 06:37 14.95292 -17.07533 16156 ft 391 kts 357°
2026-04-27 06:38 14.97992 -17.07557 17350 ft 396 kts 357°
2026-04-27 06:38 15.00768 -17.07582 18499 ft 401 kts 357°
2026-04-27 06:38 15.03581 -17.07608 19462 ft 408 kts 356°
2026-04-27 06:38 15.06438 -17.07636 20411 ft 414 kts 356°
2026-04-27 06:39 15.09336 -17.07664 21330 ft 420 kts 356°
2026-04-27 06:39 15.12282 -17.07693 22237 ft 426 kts 356°
2026-04-27 06:39 15.15271 -17.07722 23123 ft 433 kts 356°
2026-04-27 06:39 15.18301 -17.07751 23941 ft 438 kts 356°
2026-04-27 06:40 15.21364 -17.07778 24720 ft 442 kts 356°
2026-04-27 06:40 15.24408 -17.07805 25495 ft 446 kts 355°
2026-04-27 06:40 15.27524 -17.07834 26259 ft 449 kts 355°
2026-04-27 06:40 15.30666 -17.07838 26999 ft 455 kts 359°
2026-04-27 06:41 15.33807 -17.07182 27746 ft 470 kts 16°
2026-04-27 06:41 15.36733 -17.05572 28445 ft 485 kts 31°
2026-04-27 06:41 15.39491 -17.03520 29104 ft 491 kts 32°
2026-04-27 06:41 15.42193 -17.01304 29751 ft 498 kts 35°
2026-04-27 06:42 15.44872 -16.98992 30322 ft 503 kts 34°
2026-04-27 06:42 15.47591 -16.96767 30813 ft 507 kts 32°
2026-04-27 06:42 15.50407 -16.94534 31320 ft 513 kts 33°
2026-04-27 06:42 15.53232 -16.92233 31792 ft 519 kts 33°
2026-04-27 06:43 15.56065 -16.89892 32346 ft 522 kts 34°
2026-04-27 06:43 15.58906 -16.87535 33000 ft 524 kts 34°
2026-04-27 06:43 15.61752 -16.85174 33653 ft 525 kts 34°
2026-04-27 06:43 15.64609 -16.82814 34280 ft 525 kts 33°
2026-04-27 06:44 15.67491 -16.80495 34938 ft 523 kts 33°
2026-04-27 06:44 15.70307 -16.78189 35605 ft 522 kts 33°
2026-04-27 06:44 15.73141 -16.75846 36300 ft 520 kts 34°
2026-04-27 06:44 15.75956 -16.73510 36995 ft 518 kts 34°
2026-04-27 06:45 15.78780 -16.71187 37682 ft 516 kts 32°
2026-04-27 06:45 15.81605 -16.68904 38362 ft 514 kts 33°
2026-04-27 06:45 15.84401 -16.66603 38950 ft 512 kts 33°
2026-04-27 06:45 15.87165 -16.64311 38962 ft 515 kts 33°
2026-04-27 06:46 15.92760 -16.59691 38970 ft 511 kts 32°
2026-04-27 06:46 15.98297 -16.55160 38978 ft 510 kts 33°
2026-04-27 06:47 16.03858 -16.50540 38983 ft 512 kts 33°
2026-04-27 06:47 16.09459 -16.45965 38985 ft 512 kts 33°
2026-04-27 06:48 16.15027 -16.41343 38982 ft 512 kts 33°
2026-04-27 06:48 16.20571 -16.36766 38984 ft 512 kts 32°
2026-04-27 06:49 16.26167 -16.32155 38983 ft 514 kts 33°
2026-04-27 06:49 16.31746 -16.27499 38982 ft 514 kts 33°
2026-04-27 06:50 16.37368 -16.22896 38982 ft 515 kts 32°
2026-04-27 06:50 16.42926 -16.18256 38978 ft 516 kts 33°
2026-04-27 06:51 16.48546 -16.13616 38978 ft 515 kts 32°
2026-04-27 06:51 16.54206 -16.09029 38975 ft 513 kts 29°
2026-04-27 06:52 16.60077 -16.04816 38979 ft 513 kts 28°
2026-04-27 06:52 16.65886 -16.00466 38977 ft 515 kts 29°
2026-04-27 06:53 16.71646 -15.96101 38976 ft 515 kts 29°
2026-04-27 06:53 16.77488 -15.91791 38972 ft 515 kts 28°
2026-04-27 06:54 16.83306 -15.87417 38978 ft 516 kts 29°
2026-04-27 06:54 16.89140 -15.83042 38971 ft 515 kts 28°
2026-04-27 06:55 16.94946 -15.78724 38967 ft 516 kts 29°
2026-04-27 06:55 17.00767 -15.74329 38967 ft 516 kts 29°
2026-04-27 06:56 17.06624 -15.69979 38967 ft 517 kts 28°
2026-04-27 06:56 17.12467 -15.65579 38953 ft 517 kts 29°
2026-04-27 06:57 17.18259 -15.61213 38958 ft 516 kts 28°
2026-04-27 06:57 17.24111 -15.56853 38961 ft 517 kts 29°
2026-04-27 06:58 17.32876 -15.50223 38961 ft 518 kts 28°
2026-04-27 06:59 17.38741 -15.45855 38960 ft 517 kts 28°
2026-04-27 06:59 17.44534 -15.41459 38960 ft 519 kts 29°
2026-04-27 07:00 17.50405 -15.37053 38955 ft 519 kts 28°
2026-04-27 07:00 17.56266 -15.32630 38954 ft 519 kts 29°
2026-04-27 07:01 17.62104 -15.28193 38957 ft 518 kts 28°
2026-04-27 07:01 17.67969 -15.23774 38951 ft 519 kts 28°
2026-04-27 07:02 17.73796 -15.19369 38949 ft 520 kts 29°
2026-04-27 07:02 17.79659 -15.14934 38951 ft 519 kts 28°
2026-04-27 07:03 17.85528 -15.10508 38951 ft 520 kts 29°
2026-04-27 07:03 17.91401 -15.06062 38947 ft 521 kts 29°
2026-04-27 07:04 17.97278 -15.01610 38950 ft 520 kts 28°
2026-04-27 07:04 18.03119 -14.97212 38946 ft 521 kts 29°
2026-04-27 07:05 18.08999 -14.92738 38945 ft 522 kts 29°
2026-04-27 07:05 18.14880 -14.88267 38946 ft 521 kts 29°
2026-04-27 07:06 18.20771 -14.83826 38946 ft 521 kts 29°
2026-04-27 07:06 18.26601 -14.79377 38942 ft 522 kts 29°
2026-04-27 07:07 18.32486 -14.74888 38941 ft 522 kts 29°
2026-04-27 07:07 18.38381 -14.70433 38944 ft 521 kts 29°
2026-04-27 07:08 18.44257 -14.65942 38944 ft 522 kts 29°
2026-04-27 07:08 18.50098 -14.61472 38942 ft 523 kts 29°
2026-04-27 07:09 18.55991 -14.56974 38946 ft 523 kts 29°
2026-04-27 07:09 18.61884 -14.52476 38940 ft 523 kts 29°
2026-04-27 07:10 18.67774 -14.47975 38934 ft 524 kts 29°
2026-04-27 07:10 18.73630 -14.43493 38940 ft 523 kts 29°
2026-04-27 07:11 18.79513 -14.38987 38940 ft 522 kts 29°
2026-04-27 07:11 18.85403 -14.34474 38932 ft 523 kts 29°
2026-04-27 07:12 18.91298 -14.29952 38935 ft 524 kts 29°
2026-04-27 07:12 18.97188 -14.25429 38939 ft 523 kts 29°
2026-04-27 07:13 19.03038 -14.20933 38940 ft 524 kts 29°
2026-04-27 07:13 19.08940 -14.16393 38939 ft 525 kts 29°
2026-04-27 07:14 19.14840 -14.11850 38946 ft 524 kts 29°
2026-04-27 07:14 19.20736 -14.07307 38938 ft 525 kts 29°
2026-04-27 07:15 19.26598 -14.02785 38941 ft 525 kts 29°
2026-04-27 07:15 19.32501 -13.98228 38944 ft 525 kts 29°
2026-04-27 07:16 19.38401 -13.93668 38941 ft 525 kts 29°
2026-04-27 07:16 19.44306 -13.89102 38944 ft 526 kts 29°
2026-04-27 07:17 19.50182 -13.84553 38944 ft 527 kts 29°
2026-04-27 07:17 19.56098 -13.79971 38942 ft 526 kts 29°
2026-04-27 07:18 19.62003 -13.75388 38942 ft 527 kts 29°
2026-04-27 07:18 19.67926 -13.70791 38948 ft 528 kts 30°
2026-04-27 07:19 19.73811 -13.66217 38948 ft 527 kts 30°
2026-04-27 07:19 19.79728 -13.61614 38950 ft 527 kts 29°
2026-04-27 07:20 19.85648 -13.57007 38949 ft 529 kts 30°
2026-04-27 07:20 19.91575 -13.52389 38955 ft 528 kts 30°
2026-04-27 07:21 19.97496 -13.47770 38959 ft 528 kts 30°
2026-04-27 07:21 20.03380 -13.43176 38956 ft 528 kts 30°
2026-04-27 07:22 20.09309 -13.38544 38952 ft 529 kts 30°
2026-04-27 07:22 20.15235 -13.33908 38956 ft 529 kts 30°
2026-04-27 07:23 20.21131 -13.29292 38960 ft 530 kts 30°
2026-04-27 07:23 20.27068 -13.24638 38967 ft 530 kts 30°
2026-04-27 07:24 20.32997 -13.19987 38959 ft 529 kts 30°
2026-04-27 07:24 20.38930 -13.15329 38973 ft 530 kts 30°
2026-04-27 07:25 20.44876 -13.10657 38969 ft 530 kts 30°
2026-04-27 07:25 20.50639 -13.05824 38975 ft 536 kts 38°
2026-04-27 07:26 20.55991 -13.00238 38978 ft 542 kts 42°
2026-04-27 07:26 20.61230 -12.94469 38975 ft 539 kts 39°
2026-04-27 07:27 20.66525 -12.88794 38979 ft 539 kts 40°
2026-04-27 07:27 20.71724 -12.83088 38988 ft 541 kts 41°
2026-04-27 07:28 20.76984 -12.77332 38987 ft 541 kts 40°
2026-04-27 07:28 20.82249 -12.71602 38992 ft 540 kts 40°
2026-04-27 07:29 20.87517 -12.65871 38985 ft 541 kts 41°
2026-04-27 07:29 20.92755 -12.60159 38980 ft 542 kts 41°
2026-04-27 07:30 20.98029 -12.54398 38982 ft 542 kts 41°
2026-04-27 07:30 21.03301 -12.48634 38988 ft 542 kts 41°
2026-04-27 07:31 21.08578 -12.42861 38988 ft 542 kts 41°
2026-04-27 07:31 21.13816 -12.37122 38987 ft 542 kts 41°
2026-04-27 07:32 21.19088 -12.31341 38990 ft 543 kts 41°
2026-04-27 07:32 21.24369 -12.25543 38990 ft 544 kts 41°
2026-04-27 07:33 21.29617 -12.19775 38988 ft 543 kts 41°
2026-04-27 07:33 21.34893 -12.13971 38994 ft 544 kts 41°
2026-04-27 07:34 21.40180 -12.08148 38993 ft 545 kts 41°
2026-04-27 07:34 21.45465 -12.02320 38990 ft 545 kts 41°
2026-04-27 07:35 21.50711 -11.96528 38991 ft 544 kts 41°
2026-04-27 07:35 21.55992 -11.90701 38988 ft 545 kts 41°
2026-04-27 07:36 21.61283 -11.84865 38995 ft 545 kts 41°
2026-04-27 07:36 21.66575 -11.79025 38997 ft 545 kts 41°
2026-04-27 07:37 21.71861 -11.73191 38997 ft 545 kts 42°
2026-04-27 07:37 21.77122 -11.67379 38996 ft 546 kts 42°
2026-04-27 07:38 21.82418 -11.61519 39000 ft 546 kts 42°
2026-04-27 07:38 21.87704 -11.55663 38999 ft 545 kts 42°
2026-04-27 07:39 21.92994 -11.49798 39003 ft 546 kts 42°
2026-04-27 07:39 21.98251 -11.43963 39002 ft 546 kts 42°
2026-04-27 07:40 22.03538 -11.38086 38993 ft 546 kts 42°
2026-04-27 07:40 22.08825 -11.32204 38983 ft 546 kts 42°
2026-04-27 07:41 22.14113 -11.26313 38991 ft 547 kts 42°
2026-04-27 07:41 22.19406 -11.20410 38990 ft 547 kts 42°
2026-04-27 07:42 22.24654 -11.14550 38999 ft 546 kts 42°
2026-04-27 07:42 22.29935 -11.08647 39005 ft 547 kts 42°
2026-04-27 07:43 22.35225 -11.02729 38998 ft 547 kts 42°
2026-04-27 07:43 22.40503 -10.96814 39000 ft 547 kts 42°
2026-04-27 07:44 22.45744 -10.90935 38996 ft 547 kts 43°
2026-04-27 07:44 22.51023 -10.85009 38995 ft 548 kts 43°
2026-04-27 07:45 22.56305 -10.79069 38994 ft 547 kts 43°
2026-04-27 07:45 22.61576 -10.73135 38992 ft 547 kts 43°
2026-04-27 07:46 22.66817 -10.67229 38993 ft 548 kts 43°
2026-04-27 07:46 22.72096 -10.61274 38992 ft 548 kts 43°
2026-04-27 07:47 22.77374 -10.55310 38995 ft 548 kts 43°
2026-04-27 07:47 22.82649 -10.49344 38992 ft 548 kts 43°
2026-04-27 07:48 22.87892 -10.43416 38990 ft 549 kts 43°
2026-04-27 07:48 22.93166 -10.37434 38986 ft 549 kts 43°
2026-04-27 07:49 22.98437 -10.31442 38990 ft 548 kts 43°
2026-04-27 07:49 23.03707 -10.25452 38989 ft 549 kts 43°
2026-04-27 07:50 23.08093 -10.20463 38986 ft 550 kts 43°
2026-04-27 07:50 23.14222 -10.13481 38991 ft 549 kts 43°
2026-04-27 07:51 23.19494 -10.07468 38986 ft 550 kts 43°
2026-04-27 07:51 23.23910 -10.02426 39429 ft 558 kts 43°
2026-04-27 07:51 23.27434 -9.98395 40972 ft 548 kts 43°
2026-04-27 07:52 23.30067 -9.95381 40970 ft 551 kts 43°
2026-04-27 07:52 23.34469 -9.90346 40980 ft 554 kts 43°
2026-04-27 07:53 23.39771 -9.84271 40989 ft 553 kts 43°
2026-04-27 07:53 23.45065 -9.78196 40988 ft 552 kts 43°
2026-04-27 07:54 23.51209 -9.71136 40990 ft 553 kts 44°
2026-04-27 07:54 23.55613 -9.66069 40985 ft 554 kts 44°
2026-04-27 07:55 23.60910 -9.59967 40986 ft 554 kts 44°
2026-04-27 07:55 23.66197 -9.53869 40988 ft 553 kts 44°
2026-04-27 07:56 23.72344 -9.46771 40986 ft 554 kts 44°
2026-04-27 07:56 23.76746 -9.41681 40983 ft 555 kts 44°
2026-04-27 07:57 23.82038 -9.35554 40985 ft 554 kts 44°
2026-04-27 07:57 23.87319 -9.29432 40987 ft 554 kts 44°
2026-04-27 07:58 23.92610 -9.23293 40986 ft 555 kts 44°
2026-04-27 07:58 23.97868 -9.17182 40986 ft 555 kts 44°
2026-04-27 07:59 24.03155 -9.11029 40986 ft 555 kts 44°
2026-04-27 07:59 24.11085 -9.01787 40988 ft 556 kts 44°
2026-04-27 08:00 24.16373 -8.95615 40986 ft 556 kts 44°
2026-04-27 08:00 24.21628 -8.89472 40984 ft 556 kts 44°
2026-04-27 08:01 24.26916 -8.83292 40982 ft 556 kts 44°
2026-04-27 08:01 24.32203 -8.77090 40965 ft 557 kts 44°
2026-04-27 08:02 24.37490 -8.70881 40975 ft 557 kts 44°
2026-04-27 08:02 24.42741 -8.64709 40976 ft 557 kts 44°
2026-04-27 08:03 24.48034 -8.58482 40976 ft 558 kts 45°
2026-04-27 08:03 24.53323 -8.52251 40980 ft 558 kts 45°
2026-04-27 08:04 24.58616 -8.46005 40997 ft 558 kts 45°
2026-04-27 08:04 24.63869 -8.39801 40983 ft 559 kts 45°
2026-04-27 08:05 24.69163 -8.33537 40990 ft 560 kts 45°
2026-04-27 08:05 24.74461 -8.27261 40984 ft 559 kts 45°
2026-04-27 08:06 24.79744 -8.20996 40986 ft 558 kts 45°
2026-04-27 08:06 24.84995 -8.14759 40989 ft 560 kts 45°
2026-04-27 08:07 24.90287 -8.08465 40982 ft 560 kts 45°
2026-04-27 08:07 24.95570 -8.02174 40983 ft 559 kts 45°
2026-04-27 08:08 25.00851 -7.95876 40982 ft 560 kts 45°
2026-04-27 08:08 25.06103 -7.89605 40984 ft 560 kts 45°
2026-04-27 08:09 25.11383 -7.83290 40980 ft 560 kts 45°
2026-04-27 08:09 25.16665 -7.76972 40980 ft 560 kts 45°
2026-04-27 08:10 25.21942 -7.70642 40977 ft 561 kts 45°
2026-04-27 08:10 25.27183 -7.64340 40978 ft 560 kts 46°
2026-04-27 08:11 25.32458 -7.57993 40977 ft 560 kts 46°
2026-04-27 08:11 25.37727 -7.51644 40976 ft 561 kts 46°
2026-04-27 08:12 25.42999 -7.45284 40975 ft 561 kts 46°
2026-04-27 08:12 25.48233 -7.38961 40976 ft 560 kts 46°
2026-04-27 08:13 25.53492 -7.32601 40975 ft 560 kts 46°
2026-04-27 08:13 25.58762 -7.26223 40973 ft 561 kts 46°
2026-04-27 08:14 25.64026 -7.19837 40975 ft 561 kts 46°
2026-04-27 08:14 25.69244 -7.13500 40976 ft 560 kts 46°
2026-04-27 08:15 25.74503 -7.07106 40972 ft 561 kts 46°
2026-04-27 08:15 25.79760 -7.00705 40967 ft 561 kts 46°
2026-04-27 08:16 25.85005 -6.94311 40967 ft 561 kts 46°
2026-04-27 08:16 25.90262 -6.87891 40971 ft 561 kts 46°
2026-04-27 08:17 25.95477 -6.81514 40969 ft 562 kts 47°
2026-04-27 08:17 26.00730 -6.75083 40967 ft 562 kts 47°
2026-04-27 08:18 26.05972 -6.68654 40961 ft 561 kts 47°
2026-04-27 08:18 26.11217 -6.62219 40963 ft 562 kts 47°
2026-04-27 08:19 26.16718 -6.56136 40959 ft 561 kts 40°
2026-04-27 08:19 26.22325 -6.50089 40967 ft 561 kts 44°
2026-04-27 08:20 26.27914 -6.44019 40947 ft 561 kts 42°
2026-04-27 08:20 26.33519 -6.37955 40948 ft 562 kts 43°
2026-04-27 08:21 26.39087 -6.31841 40949 ft 562 kts 43°
2026-04-27 08:21 26.44624 -6.25771 40950 ft 562 kts 43°
2026-04-27 08:22 26.50201 -6.19665 40947 ft 561 kts 43°
2026-04-27 08:22 26.55775 -6.13558 40951 ft 562 kts 43°
2026-04-27 08:23 26.61356 -6.07436 40954 ft 562 kts 43°
2026-04-27 08:23 26.66891 -6.01353 40945 ft 562 kts 43°
2026-04-27 08:24 26.72457 -5.95229 40944 ft 561 kts 43°
2026-04-27 08:24 26.78020 -5.89098 40943 ft 562 kts 43°
2026-04-27 08:25 26.83588 -5.82952 40946 ft 562 kts 43°
2026-04-27 08:25 26.89108 -5.76850 40950 ft 561 kts 44°
2026-04-27 08:26 26.94659 -5.70705 40947 ft 561 kts 44°
2026-04-27 08:26 27.00214 -5.64548 40953 ft 562 kts 44°
2026-04-27 08:27 27.05771 -5.58379 40952 ft 562 kts 44°
2026-04-27 08:27 27.11323 -5.52206 40945 ft 561 kts 44°
2026-04-27 08:28 27.16826 -5.46077 40948 ft 561 kts 44°
2026-04-27 08:28 27.22370 -5.39895 40943 ft 562 kts 44°
2026-04-27 08:29 27.27911 -5.33706 40946 ft 562 kts 44°
2026-04-27 08:29 27.33447 -5.27514 40945 ft 561 kts 44°
2026-04-27 08:30 27.38980 -5.21316 40946 ft 561 kts 44°
2026-04-27 08:30 27.44475 -5.15150 40943 ft 562 kts 44°
2026-04-27 08:31 27.50013 -5.08929 40936 ft 562 kts 44°
2026-04-27 08:31 27.55537 -5.02713 40929 ft 560 kts 44°
2026-04-27 08:32 27.61054 -4.96496 40938 ft 562 kts 44°
2026-04-27 08:32 27.66543 -4.90300 40935 ft 562 kts 44°
2026-04-27 08:33 27.72058 -4.84066 40933 ft 561 kts 44°
2026-04-27 08:33 27.77563 -4.77834 40929 ft 561 kts 44°
2026-04-27 08:34 27.83069 -4.71591 40937 ft 561 kts 44°
2026-04-27 08:34 27.88570 -4.65346 40939 ft 560 kts 44°
2026-04-27 08:35 27.94027 -4.59139 40942 ft 560 kts 44°
2026-04-27 08:35 27.99514 -4.52890 40937 ft 560 kts 44°
2026-04-27 08:36 28.05021 -4.46648 40933 ft 560 kts 43°
2026-04-27 08:36 28.10555 -4.40519 40933 ft 560 kts 43°
2026-04-27 08:37 28.16126 -4.34372 40934 ft 559 kts 43°
2026-04-27 08:37 28.21691 -4.28205 40936 ft 559 kts 43°
2026-04-27 08:38 28.27245 -4.22030 40936 ft 559 kts 43°
2026-04-27 08:38 28.32756 -4.15887 40932 ft 558 kts 43°
2026-04-27 08:39 28.38289 -4.09710 40933 ft 558 kts 43°
2026-04-27 08:39 28.43825 -4.03523 40931 ft 558 kts 43°
2026-04-27 08:40 28.49355 -3.97333 40936 ft 558 kts 43°
2026-04-27 08:40 28.54883 -3.91134 40931 ft 558 kts 43°
2026-04-27 08:41 28.60361 -3.84984 40932 ft 557 kts 43°
2026-04-27 08:41 28.65871 -3.78787 40932 ft 557 kts 43°
2026-04-27 08:42 28.71381 -3.72580 40931 ft 557 kts 43°
2026-04-27 08:42 28.76886 -3.66369 40923 ft 556 kts 43°
2026-04-27 08:43 28.82375 -3.60165 40931 ft 555 kts 43°
2026-04-27 08:43 28.87821 -3.54001 40929 ft 555 kts 43°
2026-04-27 08:44 28.93305 -3.47786 40935 ft 556 kts 43°
2026-04-27 08:44 28.98785 -3.41565 40929 ft 555 kts 43°
2026-04-27 08:45 29.04253 -3.35346 40926 ft 555 kts 43°
2026-04-27 08:45 29.09679 -3.29167 40931 ft 554 kts 43°
2026-04-27 08:46 29.15131 -3.22947 40931 ft 553 kts 43°
2026-04-27 08:46 29.20578 -3.16724 40930 ft 553 kts 43°
2026-04-27 08:47 29.26015 -3.10499 40936 ft 552 kts 43°
2026-04-27 08:47 29.31467 -3.04312 40931 ft 552 kts 43°
2026-04-27 08:48 29.36893 -2.98172 40940 ft 552 kts 43°
2026-04-27 08:48 29.42361 -2.91970 40939 ft 552 kts 43°
2026-04-27 08:49 29.47806 -2.85773 40935 ft 551 kts 43°
2026-04-27 08:49 29.53243 -2.79572 40939 ft 551 kts 43°
2026-04-27 08:50 29.58642 -2.73406 40935 ft 551 kts 43°
2026-04-27 08:50 29.64074 -2.67193 40949 ft 551 kts 43°
2026-04-27 08:51 29.69498 -2.60980 40948 ft 551 kts 43°
2026-04-27 08:51 29.74921 -2.54757 40948 ft 550 kts 43°
2026-04-27 08:52 29.80303 -2.48571 40947 ft 550 kts 43°
2026-04-27 08:52 29.85711 -2.42346 40941 ft 549 kts 43°
2026-04-27 08:53 29.91110 -2.36119 40943 ft 549 kts 43°
2026-04-27 08:53 29.96475 -2.29923 40946 ft 550 kts 43°
2026-04-27 08:54 30.01878 -2.23681 40943 ft 549 kts 42°
2026-04-27 08:54 30.07769 -2.18154 40953 ft 544 kts 32°
2026-04-27 08:55 30.13906 -2.13030 40951 ft 546 kts 36°
2026-04-27 08:55 30.19875 -2.07619 40954 ft 545 kts 33°
2026-04-27 08:56 30.25906 -2.02420 40959 ft 544 kts 35°
2026-04-27 08:56 30.31874 -1.97056 40962 ft 543 kts 34°
2026-04-27 08:57 30.40889 -1.89110 40961 ft 543 kts 34°
2026-04-27 08:58 30.46846 -1.83846 40962 ft 541 kts 34°
2026-04-27 08:58 30.52818 -1.78544 40965 ft 540 kts 34°
2026-04-27 08:59 30.58782 -1.73235 40970 ft 541 kts 34°
2026-04-27 08:59 30.64748 -1.67917 40978 ft 540 kts 34°
2026-04-27 09:00 30.70708 -1.62597 40978 ft 539 kts 35°
2026-04-27 09:00 30.76604 -1.57325 40982 ft 539 kts 35°
2026-04-27 09:01 30.82544 -1.52007 40983 ft 539 kts 35°
2026-04-27 09:01 30.88487 -1.46676 40991 ft 539 kts 35°
2026-04-27 09:02 30.94411 -1.41353 40994 ft 538 kts 35°
2026-04-27 09:02 31.00284 -1.36063 40997 ft 538 kts 34°
2026-04-27 09:03 31.06239 -1.30790 41001 ft 537 kts 34°
2026-04-27 09:03 31.12202 -1.25566 40999 ft 535 kts 34°
2026-04-27 09:04 31.18143 -1.20351 40998 ft 534 kts 34°
2026-04-27 09:04 31.24072 -1.15121 41000 ft 534 kts 34°
2026-04-27 09:05 31.29956 -1.09914 40999 ft 533 kts 34°
2026-04-27 09:05 31.35866 -1.04676 41002 ft 532 kts 34°
2026-04-27 09:06 31.41755 -0.99449 41009 ft 531 kts 34°
2026-04-27 09:06 31.47633 -0.94224 41016 ft 531 kts 34°
2026-04-27 09:07 31.53512 -0.88991 41014 ft 531 kts 34°
2026-04-27 09:07 31.59345 -0.83791 41022 ft 530 kts 34°
2026-04-27 09:08 31.65202 -0.78558 41019 ft 529 kts 34°
2026-04-27 09:08 31.71051 -0.73325 41022 ft 529 kts 34°
2026-04-27 09:09 31.76866 -0.68116 41027 ft 529 kts 34°
2026-04-27 09:09 31.82709 -0.62871 41018 ft 528 kts 34°
2026-04-27 09:10 31.88540 -0.57622 41026 ft 527 kts 34°
2026-04-27 09:10 31.94391 -0.52421 41034 ft 527 kts 34°
2026-04-27 09:11 32.00221 -0.47275 41035 ft 526 kts 34°
2026-04-27 09:11 32.06068 -0.42105 41037 ft 524 kts 34°
2026-04-27 09:12 32.11889 -0.36935 41034 ft 524 kts 34°
2026-04-27 09:12 32.17705 -0.31755 41038 ft 524 kts 34°
2026-04-27 09:13 32.23512 -0.26574 41041 ft 522 kts 34°
2026-04-27 09:13 32.29265 -0.21435 41040 ft 522 kts 34°
2026-04-27 09:14 32.35068 -0.16245 41046 ft 523 kts 34°
2026-04-27 09:14 32.40862 -0.11053 41041 ft 523 kts 34°
2026-04-27 09:15 32.46652 -0.05855 41045 ft 522 kts 34°
2026-04-27 09:15 32.52404 -0.00684 41048 ft 523 kts 34°
2026-04-27 09:16 32.58191 0.04527 41048 ft 523 kts 34°
2026-04-27 09:16 32.63984 0.09753 41047 ft 522 kts 34°
2026-04-27 09:17 32.69759 0.14971 41042 ft 522 kts 34°
2026-04-27 09:17 32.75538 0.20202 41046 ft 523 kts 34°
2026-04-27 09:18 32.81284 0.25411 41031 ft 523 kts 34°
2026-04-27 09:18 32.87050 0.30648 41033 ft 521 kts 34°
2026-04-27 09:19 32.92816 0.35892 41038 ft 522 kts 34°
2026-04-27 09:19 32.98586 0.41150 41062 ft 522 kts 34°
2026-04-27 09:20 33.04303 0.46368 41045 ft 520 kts 34°
2026-04-27 09:20 33.10053 0.51625 41051 ft 521 kts 34°
2026-04-27 09:21 33.15804 0.56892 41049 ft 521 kts 34°
2026-04-27 09:21 33.21548 0.62162 41053 ft 520 kts 34°
2026-04-27 09:22 33.27281 0.67431 41056 ft 520 kts 34°
2026-04-27 09:22 33.32983 0.72678 41060 ft 521 kts 34°
2026-04-27 09:23 33.38720 0.77967 41055 ft 520 kts 34°
2026-04-27 09:23 33.44441 0.83252 41062 ft 519 kts 34°
2026-04-27 09:24 33.50160 0.88544 41078 ft 520 kts 34°
2026-04-27 09:24 33.55881 0.93845 41088 ft 520 kts 34°
2026-04-27 09:25 33.61554 0.99113 41102 ft 518 kts 34°
2026-04-27 09:25 33.67248 1.04408 41111 ft 518 kts 34°
2026-04-27 09:25 33.70208 1.06837 41111 ft 512 kts 22°
2026-04-27 09:26 33.73449 1.08571 41112 ft 508 kts 15°
2026-04-27 09:26 33.80241 1.10537 41112 ft 500 kts
2026-04-27 09:27 33.87036 1.12021 41096 ft 501 kts
2026-04-27 09:27 33.93820 1.13948 41084 ft 500 kts
2026-04-27 09:28 34.00634 1.15641 41077 ft 500 kts
2026-04-27 09:28 34.07440 1.17424 41068 ft 500 kts
2026-04-27 09:29 34.14177 1.19224 41068 ft 499 kts
2026-04-27 09:29 34.20958 1.21021 41076 ft 499 kts
2026-04-27 09:30 34.27741 1.22811 41090 ft 499 kts
2026-04-27 09:30 34.34525 1.24603 41089 ft 499 kts
2026-04-27 09:31 34.41295 1.26396 41076 ft 498 kts
2026-04-27 09:31 34.48013 1.28178 41089 ft 498 kts
2026-04-27 09:32 34.54788 1.29979 41091 ft 498 kts
2026-04-27 09:32 34.61546 1.31779 41079 ft 497 kts
2026-04-27 09:33 34.68289 1.33579 41081 ft 496 kts
2026-04-27 09:33 34.74991 1.35368 41085 ft 496 kts
2026-04-27 09:34 34.81738 1.37173 41090 ft 496 kts
2026-04-27 09:34 34.88463 1.38977 41089 ft 495 kts
2026-04-27 09:35 34.95139 1.40770 41090 ft 494 kts
2026-04-27 09:35 35.01852 1.42575 41097 ft 494 kts
2026-04-27 09:36 35.08565 1.44384 41118 ft 493 kts
2026-04-27 09:36 35.15266 1.46193 41139 ft 492 kts
2026-04-27 09:37 35.21964 1.48004 41151 ft 493 kts
2026-04-27 09:37 35.28615 1.49805 41169 ft 493 kts
2026-04-27 09:38 35.35084 1.52622 41179 ft 505 kts 31°
2026-04-27 09:38 35.40411 1.58296 41165 ft 513 kts 43°
2026-04-27 09:39 35.45292 1.64704 41130 ft 514 kts 44°
2026-04-27 09:39 35.50266 1.70877 41107 ft 511 kts 41°
2026-04-27 09:40 35.55221 1.77172 41092 ft 513 kts 43°
2026-04-27 09:40 35.60193 1.83457 41084 ft 513 kts 42°
2026-04-27 09:41 35.65181 1.89713 41087 ft 512 kts 42°
2026-04-27 09:41 35.70146 1.95915 41093 ft 512 kts 42°
2026-04-27 09:42 35.75173 2.02125 41094 ft 513 kts 42°
2026-04-27 09:42 35.80206 2.08349 41091 ft 512 kts 42°
2026-04-27 09:43 35.85221 2.14580 41087 ft 512 kts 42°
2026-04-27 09:43 35.90225 2.20818 41077 ft 512 kts 42°
2026-04-27 09:44 35.95199 2.27028 41095 ft 512 kts 42°
2026-04-27 09:44 36.00200 2.33284 41092 ft 511 kts 42°
2026-04-27 09:45 36.05192 2.39540 41093 ft 511 kts 42°
2026-04-27 09:45 36.10183 2.45805 41084 ft 511 kts 42°
2026-04-27 09:46 36.15138 2.52037 41098 ft 512 kts 42°
2026-04-27 09:46 36.20128 2.58326 41098 ft 512 kts 42°
2026-04-27 09:47 36.25105 2.64628 41097 ft 512 kts 43°
2026-04-27 09:47 36.30059 2.70962 41096 ft 511 kts 43°
2026-04-27 09:48 36.31752 2.73138 41097 ft 511 kts 43°
2026-04-27 09:48 36.36660 2.79459 41101 ft 512 kts 43°
2026-04-27 09:49 36.41593 2.85822 41088 ft 511 kts 43°
2026-04-27 09:49 36.46424 2.92293 41098 ft 512 kts 48°
2026-04-27 09:50 36.50718 2.99380 41111 ft 514 kts 51°
2026-04-27 09:50 36.55111 3.06306 41109 ft 513 kts 48°
2026-04-27 09:51 36.59489 3.13316 41109 ft 513 kts 50°
2026-04-27 09:51 36.63862 3.20310 41111 ft 511 kts 49°
2026-04-27 09:52 36.68260 3.27269 41111 ft 512 kts 49°
2026-04-27 09:52 36.72652 3.34253 41110 ft 512 kts 49°
2026-04-27 09:53 36.76987 3.41201 41105 ft 511 kts 49°
2026-04-27 09:53 36.81341 3.48201 41101 ft 510 kts 49°
2026-04-27 09:54 36.85690 3.55203 41102 ft 510 kts 49°
2026-04-27 09:54 36.90010 3.62169 41108 ft 510 kts 49°
2026-04-27 09:55 36.94346 3.69177 41104 ft 509 kts 50°
2026-04-27 09:55 37.00834 3.79690 41094 ft 509 kts 50°
2026-04-27 09:56 37.05156 3.86713 41094 ft 509 kts 50°
2026-04-27 09:56 37.09729 3.93356 41116 ft 505 kts 40°
2026-04-27 09:57 37.14959 3.99197 41102 ft 503 kts 38°
2026-04-27 09:57 37.20060 4.05225 41109 ft 505 kts 41°
2026-04-27 09:58 37.25149 4.11284 41118 ft 504 kts 39°
2026-04-27 09:58 37.30273 4.17274 41119 ft 503 kts 40°
2026-04-27 09:59 37.35305 4.23299 41119 ft 503 kts 40°
2026-04-27 09:59 37.40376 4.29353 41121 ft 502 kts 40°
2026-04-27 10:00 37.45446 4.35390 41124 ft 502 kts 40°
2026-04-27 10:00 37.50511 4.41440 41124 ft 501 kts 40°
2026-04-27 10:01 37.55522 4.47447 41130 ft 500 kts 40°
2026-04-27 10:01 37.60555 4.53494 41132 ft 500 kts 40°
2026-04-27 10:02 37.65591 4.59554 41134 ft 500 kts 41°
2026-04-27 10:02 37.70621 4.65620 41136 ft 499 kts 41°
2026-04-27 10:03 37.75635 4.71679 41134 ft 499 kts 41°
2026-04-27 10:03 37.80618 4.77709 41142 ft 499 kts 41°
2026-04-27 10:04 37.85632 4.83790 41129 ft 500 kts 41°
2026-04-27 10:04 37.90646 4.89885 41134 ft 499 kts 41°
2026-04-27 10:05 37.95644 4.95971 41140 ft 498 kts 41°
2026-04-27 10:05 38.00603 5.02029 41145 ft 499 kts 41°
2026-04-27 10:06 38.05614 5.08111 41139 ft 499 kts 40°
2026-04-27 10:06 38.10632 5.14193 41144 ft 498 kts 41°
2026-04-27 10:07 38.15634 5.20280 41145 ft 498 kts 41°
2026-04-27 10:07 38.20634 5.26384 41152 ft 498 kts 41°
2026-04-27 10:08 38.25592 5.32451 41145 ft 498 kts 41°
2026-04-27 10:08 38.30581 5.38567 41156 ft 497 kts 41°
2026-04-27 10:09 38.35560 5.44682 41142 ft 497 kts 41°
2026-04-27 10:09 38.40536 5.50804 41145 ft 497 kts 41°
2026-04-27 10:10 38.45479 5.56900 41157 ft 497 kts 41°
2026-04-27 10:10 38.50443 5.63035 41155 ft 496 kts 41°
2026-04-27 10:11 38.55400 5.69172 41159 ft 497 kts 41°
2026-04-27 10:11 38.60359 5.75324 41161 ft 497 kts 41°
2026-04-27 10:12 38.65276 5.81437 41158 ft 496 kts 41°
2026-04-27 10:12 38.70218 5.87593 41162 ft 495 kts 41°
2026-04-27 10:13 38.75155 5.93756 41158 ft 496 kts 41°
2026-04-27 10:13 38.80092 5.99929 41163 ft 495 kts 41°
2026-04-27 10:14 38.84983 6.06061 41168 ft 494 kts 41°
2026-04-27 10:14 38.89897 6.12232 41167 ft 495 kts 42°
2026-04-27 10:15 38.94816 6.18421 41168 ft 495 kts 42°
2026-04-27 10:15 38.99732 6.24604 41165 ft 494 kts 39°
2026-04-27 10:16 39.05389 6.29444 41172 ft 488 kts 25°
2026-04-27 10:16 39.11317 6.33592 41171 ft 489 kts 27°
2026-04-27 10:17 39.17100 6.38211 41170 ft 489 kts 29°
2026-04-27 10:17 39.22947 6.42653 41164 ft 487 kts 27°
2026-04-27 10:18 39.28772 6.47157 41168 ft 489 kts 29°
2026-04-27 10:18 39.34580 6.51707 41170 ft 488 kts 28°
2026-04-27 10:19 39.40367 6.56194 41173 ft 487 kts 28°
2026-04-27 10:19 39.46181 6.60702 41175 ft 487 kts 28°
2026-04-27 10:20 39.51997 6.65231 41172 ft 488 kts 28°
2026-04-27 10:20 39.57808 6.69773 41178 ft 488 kts 28°
2026-04-27 10:21 39.63570 6.74291 41178 ft 487 kts 28°
2026-04-27 10:21 39.69368 6.78842 41175 ft 487 kts 28°
2026-04-27 10:22 39.75173 6.83408 41177 ft 488 kts 28°
2026-04-27 10:22 39.80968 6.87975 41178 ft 487 kts 29°
2026-04-27 10:23 39.86712 6.92511 41176 ft 486 kts 29°
2026-04-27 10:23 39.92492 6.97085 41177 ft 487 kts 29°
2026-04-27 10:24 39.98277 7.01672 41176 ft 486 kts 29°
2026-04-27 10:24 40.04045 7.06254 41175 ft 485 kts 29°
2026-04-27 10:25 40.09770 7.10811 41176 ft 485 kts 29°
2026-04-27 10:25 40.15540 7.15414 41176 ft 486 kts 29°
2026-04-27 10:26 40.21297 7.20026 41172 ft 485 kts 29°
2026-04-27 10:26 40.27057 7.24632 41177 ft 484 kts 29°
2026-04-27 10:27 40.32766 7.29212 41175 ft 485 kts 29°
2026-04-27 10:27 40.38518 7.33836 41174 ft 485 kts 29°
2026-04-27 10:28 40.44268 7.38462 41172 ft 484 kts 29°
2026-04-27 10:28 40.50002 7.43085 41170 ft 484 kts 29°
2026-04-27 10:29 40.55695 7.47706 41173 ft 485 kts 31°
2026-04-27 10:29 40.61097 7.53041 41170 ft 487 kts 38°
2026-04-27 10:30 40.66258 7.58822 41179 ft 486 kts 37°
2026-04-27 10:30 40.71577 7.64296 41174 ft 486 kts 36°
2026-04-27 10:31 40.76785 7.69938 41162 ft 489 kts 37°
2026-04-27 10:31 40.82078 7.75579 41169 ft 488 kts 37°
2026-04-27 10:32 40.87348 7.81170 41174 ft 487 kts 37°
2026-04-27 10:32 40.92595 7.86763 41172 ft 488 kts 37°
2026-04-27 10:33 40.97871 7.92418 41179 ft 488 kts 37°
2026-04-27 10:33 41.03143 7.98090 41169 ft 488 kts 37°
2026-04-27 10:34 41.08409 8.03766 41175 ft 488 kts 37°
2026-04-27 10:34 41.13638 8.09412 41171 ft 488 kts 37°
2026-04-27 10:35 41.18906 8.15110 41157 ft 489 kts 37°
2026-04-27 10:35 41.24169 8.20815 41158 ft 488 kts 37°
2026-04-27 10:36 41.28536 8.25560 41155 ft 488 kts 37°
2026-04-27 10:36 41.34640 8.32205 41160 ft 488 kts 37°
2026-04-27 10:37 41.39892 8.37936 41163 ft 488 kts 37°
2026-04-27 10:37 41.45143 8.43680 41160 ft 488 kts 37°
2026-04-27 10:38 41.49493 8.48447 41162 ft 488 kts 38°
2026-04-27 10:38 41.55589 8.55139 41165 ft 488 kts 38°
2026-04-27 10:39 41.59984 8.59976 41164 ft 488 kts 38°
2026-04-27 10:39 41.65182 8.65709 41162 ft 487 kts 38°
2026-04-27 10:40 41.70404 8.71480 41165 ft 487 kts 38°
2026-04-27 10:40 41.76479 8.78210 41161 ft 488 kts 38°
2026-04-27 10:41 41.80826 8.83036 41163 ft 488 kts 38°
2026-04-27 10:41 41.86041 8.88836 41165 ft 487 kts 38°
2026-04-27 10:42 41.91255 8.94649 41164 ft 488 kts 38°
2026-04-27 10:42 41.96478 9.00483 41157 ft 488 kts 38°
2026-04-27 10:43 42.01654 9.06280 41160 ft 487 kts 38°
2026-04-27 10:43 42.06855 9.12116 41163 ft 487 kts 38°
2026-04-27 10:44 42.12063 9.17974 41162 ft 488 kts 38°
2026-04-27 10:44 42.17267 9.23836 41162 ft 488 kts 38°
2026-04-27 10:45 42.22462 9.29708 41162 ft 487 kts 38°
2026-04-27 10:45 42.27618 9.35543 41173 ft 488 kts 38°
2026-04-27 10:46 42.32818 9.41444 41165 ft 488 kts 38°
2026-04-27 10:46 42.38009 9.47350 41162 ft 487 kts 38°
2026-04-27 10:47 42.43188 9.53252 41165 ft 487 kts 38°
2026-04-27 10:47 42.48339 9.59135 41162 ft 488 kts 38°
2026-04-27 10:48 42.53526 9.65073 41160 ft 487 kts 38°
2026-04-27 10:48 42.58691 9.71001 41162 ft 487 kts 38°
2026-04-27 10:49 42.63815 9.76862 41167 ft 486 kts 37°
2026-04-27 10:49 42.69246 9.82354 41175 ft 486 kts 34°
2026-04-27 10:50 42.74540 9.87991 41180 ft 486 kts 36°
2026-04-27 10:50 42.79884 9.93611 41176 ft 485 kts 35°
2026-04-27 10:51 42.85246 9.99200 41179 ft 486 kts 36°
2026-04-27 10:51 42.90607 10.04818 41180 ft 486 kts 36°
2026-04-27 10:52 42.95927 10.10429 41183 ft 486 kts 36°
2026-04-27 10:52 43.01260 10.16079 41184 ft 485 kts 36°
2026-04-27 10:53 43.09267 10.24580 41184 ft 486 kts 36°
2026-04-27 10:54 43.14609 10.30267 41182 ft 486 kts 36°
2026-04-27 10:54 43.19871 10.36071 41170 ft 486 kts 40°
2026-04-27 10:55 43.24815 10.42331 41175 ft 487 kts 40°
2026-04-27 10:55 43.29923 10.48426 41178 ft 487 kts 39°
2026-04-27 10:56 43.34969 10.54647 41174 ft 487 kts 40°
2026-04-27 10:56 43.40020 10.60853 41168 ft 487 kts 39°
2026-04-27 10:57 43.45054 10.66992 41173 ft 487 kts 39°
2026-04-27 10:57 43.50120 10.73192 41168 ft 488 kts 40°
2026-04-27 10:58 43.55180 10.79420 41170 ft 487 kts 40°
2026-04-27 10:58 43.60224 10.85658 41168 ft 487 kts 40°
2026-04-27 10:59 43.65237 10.91865 41169 ft 488 kts 40°
2026-04-27 10:59 43.70289 10.98135 41160 ft 488 kts 40°
2026-04-27 11:00 43.77853 11.07551 41164 ft 488 kts 40°
2026-04-27 11:00 43.82855 11.13799 41157 ft 488 kts 40°
2026-04-27 11:01 43.87898 11.20109 41158 ft 488 kts 40°
2026-04-27 11:01 43.92936 11.26429 41166 ft 489 kts 40°
2026-04-27 11:02 43.97969 11.32761 41168 ft 488 kts 40°
2026-04-27 11:02 44.02994 11.39094 41178 ft 488 kts 40°
2026-04-27 11:03 44.07992 11.45407 41188 ft 489 kts 40°
2026-04-27 11:03 44.13020 11.51775 41198 ft 489 kts 40°
2026-04-27 11:04 44.18036 11.58165 41192 ft 488 kts 40°
2026-04-27 11:04 44.23048 11.64542 41195 ft 489 kts 40°
2026-04-27 11:05 44.28045 11.70907 41187 ft 489 kts 40°
2026-04-27 11:05 44.33059 11.77317 41168 ft 488 kts 40°
2026-04-27 11:06 44.38052 11.83723 41143 ft 488 kts 40°
2026-04-27 11:06 44.43050 11.90149 41165 ft 488 kts 40°
2026-04-27 11:07 44.48053 11.96597 41166 ft 488 kts 40°
2026-04-27 11:07 44.53000 12.02989 41154 ft 487 kts 40°
2026-04-27 11:08 44.57972 12.09430 41157 ft 487 kts 40°
2026-04-27 11:08 44.62944 12.15883 41145 ft 488 kts 40°
2026-04-27 11:09 44.67919 12.22358 41142 ft 487 kts 40°
2026-04-27 11:09 44.72876 12.28825 41151 ft 486 kts 40°
2026-04-27 11:10 44.77799 12.35263 41147 ft 487 kts 40°
2026-04-27 11:10 44.82751 12.41753 41149 ft 487 kts 40°
2026-04-27 11:11 44.87701 12.48261 41161 ft 486 kts 40°
2026-04-27 11:11 44.92632 12.54757 41152 ft 485 kts 40°
2026-04-27 11:12 44.97530 12.61225 41151 ft 486 kts 40°
2026-04-27 11:12 45.02459 12.67750 41148 ft 485 kts 41°
2026-04-27 11:13 45.07378 12.74280 41155 ft 484 kts 41°
2026-04-27 11:13 45.12291 12.80817 41151 ft 485 kts 41°
2026-04-27 11:14 45.17201 12.87366 41156 ft 485 kts 41°
2026-04-27 11:14 45.22076 12.93885 41154 ft 484 kts 41°
2026-04-27 11:15 45.26959 13.00461 41153 ft 484 kts 41°
2026-04-27 11:15 45.31761 13.07174 41156 ft 485 kts 43°
2026-04-27 11:16 45.36522 13.13872 41150 ft 485 kts 42°
2026-04-27 11:16 45.41331 13.20582 41148 ft 484 kts 42°
2026-04-27 11:17 45.46131 13.27294 41148 ft 484 kts 42°
2026-04-27 11:17 45.50926 13.34034 41140 ft 484 kts 42°
2026-04-27 11:18 45.55712 13.40792 41143 ft 484 kts 42°
2026-04-27 11:18 45.60458 13.47513 41141 ft 483 kts 42°
2026-04-27 11:19 45.65225 13.54287 41143 ft 483 kts 42°
2026-04-27 11:19 45.69997 13.61063 41141 ft 484 kts 42°
2026-04-27 11:20 45.74763 13.67859 41147 ft 483 kts 42°
2026-04-27 11:20 45.79491 13.74611 41145 ft 483 kts 42°
2026-04-27 11:21 45.84247 13.81419 41145 ft 483 kts 42°
2026-04-27 11:21 45.88997 13.88239 41157 ft 483 kts 42°
2026-04-27 11:22 45.93744 13.95075 41154 ft 482 kts 42°
2026-04-27 11:22 45.98440 14.01854 41172 ft 482 kts 43°
2026-04-27 11:23 46.03180 14.08713 41183 ft 484 kts 42°
2026-04-27 11:23 46.07911 14.15579 41185 ft 482 kts 42°
2026-04-27 11:24 46.12613 14.22423 41194 ft 477 kts 42°
2026-04-27 11:24 46.17240 14.29179 41193 ft 478 kts 42°
2026-04-27 11:25 46.21920 14.36021 41194 ft 479 kts 43°
2026-04-27 11:25 46.26594 14.42873 41193 ft 478 kts 43°
2026-04-27 11:26 46.31260 14.49730 41196 ft 478 kts 43°
2026-04-27 11:26 46.35924 14.56599 41181 ft 480 kts 43°
2026-04-27 11:27 46.40570 14.63461 41213 ft 479 kts 42°
2026-04-27 11:27 46.45347 14.70156 41187 ft 477 kts 41°
2026-04-27 11:28 46.49964 14.77094 41186 ft 478 kts 42°
2026-04-27 11:28 46.54702 14.83874 41190 ft 479 kts 43°
2026-04-27 11:29 46.59293 14.90912 41183 ft 479 kts 43°
2026-04-27 11:29 46.63892 14.97807 41187 ft 477 kts 43°
2026-04-27 11:30 46.68540 15.04737 41185 ft 479 kts 43°
2026-04-27 11:30 46.73190 15.11716 41187 ft 480 kts 43°
2026-04-27 11:31 46.77816 15.18703 41189 ft 479 kts 43°
2026-04-27 11:31 46.82401 15.25657 41183 ft 479 kts 43°
2026-04-27 11:32 46.87024 15.32682 41182 ft 480 kts 43°
2026-04-27 11:32 46.91638 15.39714 41184 ft 479 kts 43°
2026-04-27 11:33 46.96246 15.46753 41184 ft 479 kts 43°
2026-04-27 11:33 47.00823 15.53764 41194 ft 480 kts 43°
2026-04-27 11:34 47.05434 15.60843 41193 ft 479 kts 43°
2026-04-27 11:34 47.10029 15.67921 41196 ft 479 kts 43°
2026-04-27 11:35 47.14624 15.75015 41202 ft 480 kts 43°
2026-04-27 11:35 47.19189 15.82083 41206 ft 480 kts 43°
2026-04-27 11:36 47.23787 15.89220 41207 ft 480 kts 43°
2026-04-27 11:36 47.28376 15.96362 41211 ft 480 kts 43°
2026-04-27 11:37 47.32958 16.03514 41206 ft 480 kts 43°
2026-04-27 11:37 47.37511 16.10640 41211 ft 480 kts 43°
2026-04-27 11:38 47.42092 16.17828 41212 ft 481 kts 43°
2026-04-27 11:38 47.46673 16.25035 41215 ft 481 kts 43°
2026-04-27 11:39 47.51252 16.32258 41210 ft 481 kts 44°
2026-04-27 11:39 47.55785 16.39430 41208 ft 481 kts 44°
2026-04-27 11:40 47.60351 16.46675 41217 ft 481 kts 44°
2026-04-27 11:40 47.64921 16.53944 41221 ft 482 kts 44°
2026-04-27 11:41 47.69484 16.61223 41222 ft 481 kts 44°
2026-04-27 11:41 47.74038 16.68507 41219 ft 481 kts 44°
2026-04-27 11:42 47.78555 16.75754 41222 ft 481 kts 44°
2026-04-27 11:42 47.83104 16.83069 41230 ft 482 kts 44°
2026-04-27 11:43 47.87654 16.90408 41231 ft 482 kts 44°
2026-04-27 11:43 47.92193 16.97751 41235 ft 481 kts 44°
2026-04-27 11:44 47.96698 17.05057 41240 ft 482 kts 44°
2026-04-27 11:44 48.01235 17.12436 41244 ft 482 kts 44°
2026-04-27 11:45 48.05001 17.18577 41242 ft 482 kts 44°
2026-04-27 11:45 48.10280 17.27211 41244 ft 482 kts 44°
2026-04-27 11:46 48.14583 17.34855 41246 ft 486 kts 50°
2026-04-27 11:46 48.18543 17.43064 41249 ft 486 kts 50°
2026-04-27 11:47 48.22679 17.51032 41249 ft 484 kts 49°
2026-04-27 11:47 48.26723 17.59141 41252 ft 485 kts 49°
2026-04-27 11:48 48.30764 17.67187 41251 ft 486 kts 49°
2026-04-27 11:48 48.34847 17.75271 41252 ft 486 kts 49°
2026-04-27 11:49 48.38919 17.83371 41247 ft 485 kts 49°
2026-04-27 11:49 48.42980 17.91501 41247 ft 486 kts 49°
2026-04-27 11:50 48.47010 17.99602 41251 ft 487 kts 49°
2026-04-27 11:50 48.51060 18.07772 41251 ft 486 kts 49°
2026-04-27 11:51 48.55101 18.15944 41237 ft 486 kts 49°
2026-04-27 11:52 48.61162 18.28246 41235 ft 487 kts 50°
2026-04-27 11:52 48.65171 18.36414 41236 ft 487 kts 50°
2026-04-27 11:53 48.69203 18.44656 41244 ft 487 kts 50°
2026-04-27 11:53 48.73228 18.52906 41237 ft 487 kts 50°
2026-04-27 11:54 48.77253 18.61183 41238 ft 488 kts 50°
2026-04-27 11:54 48.81240 18.69406 41234 ft 487 kts 50°
2026-04-27 11:55 48.85251 18.77706 41229 ft 488 kts 50°
2026-04-27 11:55 48.89197 18.86095 41225 ft 489 kts 52°
2026-04-27 11:56 48.92951 18.94738 41221 ft 490 kts 52°
2026-04-27 11:56 48.96756 19.03252 41216 ft 489 kts 52°
2026-04-27 11:57 49.00582 19.11804 41212 ft 489 kts 52°
2026-04-27 11:57 49.04402 19.20407 41199 ft 490 kts 52°
2026-04-27 11:58 49.08199 19.29022 41204 ft 490 kts 52°
2026-04-27 11:58 49.11993 19.37674 41206 ft 490 kts 52°
2026-04-27 11:59 49.15752 19.46266 41155 ft 489 kts 52°
2026-04-27 11:59 49.17638 19.50586 40635 ft 490 kts 52°
2026-04-27 11:59 49.19529 19.54925 39971 ft 491 kts 52°
2026-04-27 11:59 49.21422 19.59277 39262 ft 491 kts 52°
2026-04-27 12:00 49.23309 19.63619 38453 ft 491 kts 52°
2026-04-27 12:00 49.25201 19.67980 37501 ft 491 kts 52°
2026-04-27 12:00 49.27084 19.72332 36573 ft 491 kts 52°
2026-04-27 12:00 49.28915 19.76575 35674 ft 491 kts 52°
2026-04-27 12:01 49.30618 19.81036 34742 ft 495 kts 58°
2026-04-27 12:01 49.32165 19.85747 33962 ft 493 kts 59°
2026-04-27 12:01 49.33563 19.90536 33630 ft 491 kts 62°
2026-04-27 12:01 49.34919 19.95314 33329 ft 487 kts 61°
2026-04-27 12:02 49.36312 20.00030 33006 ft 483 kts 60°
2026-04-27 12:02 49.37714 20.04691 32688 ft 480 kts 60°
2026-04-27 12:02 49.39112 20.09327 32377 ft 478 kts 60°
2026-04-27 12:02 49.40484 20.13895 32076 ft 476 kts 60°
2026-04-27 12:03 49.41859 20.18500 31766 ft 473 kts 60°
2026-04-27 12:03 49.43218 20.23082 31471 ft 471 kts 60°
2026-04-27 12:03 49.44567 20.27654 31170 ft 469 kts 60°
2026-04-27 12:03 49.45907 20.32216 30882 ft 467 kts 60°
2026-04-27 12:04 49.47238 20.36756 30594 ft 464 kts 60°
2026-04-27 12:04 49.48560 20.41277 30274 ft 462 kts 60°
2026-04-27 12:04 49.49875 20.45772 29946 ft 460 kts 60°
2026-04-27 12:04 49.51168 20.50198 29606 ft 459 kts 60°
2026-04-27 12:05 49.52473 20.54667 29281 ft 458 kts 60°
2026-04-27 12:05 49.53773 20.59132 28955 ft 456 kts 61°
2026-04-27 12:05 49.55066 20.63579 28625 ft 454 kts 61°
2026-04-27 12:05 49.56349 20.68008 28301 ft 452 kts 61°
2026-04-27 12:06 49.57626 20.72423 27973 ft 450 kts 61°
2026-04-27 12:06 49.58895 20.76821 27660 ft 449 kts 61°
2026-04-27 12:06 49.60160 20.81213 27342 ft 447 kts 61°
2026-04-27 12:06 49.61417 20.85585 27037 ft 445 kts 61°
2026-04-27 12:07 49.62669 20.89944 26717 ft 443 kts 61°
2026-04-27 12:07 49.63896 20.94227 26408 ft 442 kts 61°
2026-04-27 12:07 49.65144 20.98584 25400 ft 446 kts 61°
2026-04-27 12:07 49.66391 21.02967 24398 ft 445 kts 62°
2026-04-27 12:08 49.67623 21.07340 23362 ft 443 kts 61°
2026-04-27 12:08 49.68855 21.11682 22247 ft 440 kts 61°
2026-04-27 12:08 49.70083 21.15994 21158 ft 437 kts 61°
2026-04-27 12:08 49.71299 21.20266 20096 ft 434 kts 61°
2026-04-27 12:09 49.72479 21.24433 19459 ft 422 kts 61°
2026-04-27 12:09 49.73629 21.28522 19045 ft 406 kts 61°
2026-04-27 12:09 49.74742 21.32485 18602 ft 398 kts 61°
2026-04-27 12:09 49.75836 21.36372 18096 ft 391 kts 61°
2026-04-27 12:10 49.76918 21.40211 17587 ft 388 kts 61°
2026-04-27 12:10 49.77978 21.44037 17066 ft 386 kts 62°
2026-04-27 12:10 49.79017 21.47836 16548 ft 382 kts 61°
2026-04-27 12:10 49.80072 21.51598 15949 ft 379 kts 61°
2026-04-27 12:11 49.81120 21.55307 15428 ft 374 kts 61°
2026-04-27 12:11 49.82161 21.58990 14905 ft 373 kts 61°
2026-04-27 12:11 49.83175 21.62611 14424 ft 370 kts 62°
2026-04-27 12:11 49.84167 21.66267 13939 ft 367 kts 62°
2026-04-27 12:12 49.85174 21.69891 13401 ft 364 kts 62°
2026-04-27 12:12 49.86174 21.73465 12890 ft 360 kts 62°
2026-04-27 12:12 49.87168 21.77010 12400 ft 358 kts 62°
2026-04-27 12:12 49.88128 21.80562 11947 ft 355 kts 63°
2026-04-27 12:13 49.89089 21.84079 11501 ft 352 kts 63°
2026-04-27 12:13 49.90039 21.87506 11026 ft 350 kts 63°
2026-04-27 12:13 49.91001 21.90962 10576 ft 347 kts 63°
2026-04-27 12:13 49.91946 21.94361 10118 ft 338 kts 63°
2026-04-27 12:14 49.92835 21.97672 9653 ft 327 kts 64°
2026-04-27 12:14 49.93702 22.00876 9203 ft 317 kts 63°
2026-04-27 12:14 49.94539 22.03930 8792 ft 308 kts 63°
2026-04-27 12:14 49.95386 22.06989 8393 ft 300 kts 63°
2026-04-27 12:15 49.96201 22.09935 8013 ft 294 kts 64°
2026-04-27 12:15 49.96978 22.12804 7624 ft 290 kts 65°
2026-04-27 12:15 49.97746 22.15696 7287 ft 289 kts 64°
2026-04-27 12:15 49.98528 22.18557 6929 ft 288 kts 64°
2026-04-27 12:16 49.99322 22.21419 6573 ft 287 kts 64°
2026-04-27 12:16 50.00095 22.24277 6183 ft 288 kts 66°
2026-04-27 12:16 50.00851 22.27143 5822 ft 285 kts 65°
2026-04-27 12:16 50.01792 22.29746 5688 ft 269 kts 44°
2026-04-27 12:17 50.03282 22.31327 5439 ft 256 kts 15°
2026-04-27 12:17 50.05031 22.31811 5115 ft 266 kts
2026-04-27 12:17 50.06861 22.32137 4726 ft 263 kts 356°
2026-04-27 12:17 50.08611 22.31423 4021 ft 264 kts 327°
2026-04-27 12:18 50.09889 22.29462 3332 ft 266 kts 298°
2026-04-27 12:18 50.10383 22.26705 2774 ft 267 kts 273°
2026-04-27 12:18 50.10519 22.23916 2714 ft 248 kts 276°
2026-04-27 12:18 50.10674 22.21398 2716 ft 222 kts 276°
2026-04-27 12:19 50.10803 22.19091 2574 ft 208 kts 275°
2026-04-27 12:19 50.10835 22.16911 2529 ft 195 kts 272°
2026-04-27 12:19 50.10833 22.14832 2293 ft 191 kts 271°
2026-04-27 12:19 50.10836 22.12765 1921 ft 195 kts 272°
2026-04-27 12:20 50.10889 22.10640 1468 ft 198 kts 274°
2026-04-27 12:20 50.10919 22.08560 1193 ft 200 kts 270°
2026-04-27 12:20 50.10928 22.06484 952 ft 182 kts 271°
2026-04-27 12:20 50.10960 22.04653 740 ft 155 kts 271°
2026-04-27 12:21 50.10976 22.03161 703 ft 120 kts 271°
2026-04-27 12:21 50.10995 22.01958 691 ft 105 kts 275°
2026-04-27 12:21 50.11005 22.01169 695 ft 28 kts 270°
2026-04-27 12:21 50.11005 22.01136 714 ft 2 kts 272°
2026-04-27 12:22 50.11008 22.00976 699 ft 22 kts 271°
2026-04-27 12:22 50.11012 22.00741 705 ft 22 kts 271°
2026-04-27 12:22 50.11014 22.00508 698 ft 21 kts 271°
2026-04-27 12:22 50.11018 22.00271 695 ft 22 kts 275°
2026-04-27 12:23 50.11107 22.00179 694 ft 8 kts
2026-04-27 12:23 50.11111 22.00179 693 ft 0 kts
2026-04-27 12:24 50.11112 22.00179 693 ft 2 kts
2026-04-27 12:24 50.11179 22.00226 693 ft 18 kts 65°
2026-04-27 12:25 50.11180 22.00477 697 ft 25 kts 92°
2026-04-27 12:25 50.11176 22.00742 708 ft 25 kts 91°
2026-04-27 12:25 50.11181 22.00974 700 ft 11 kts 54°
2026-04-27 12:25 50.11232 22.00996 713 ft 8 kts
2026-04-27 12:26 50.11269 22.00997 714 ft 0 kts
2026-04-27 12:27 50.11270 22.00997 714 ft 0 kts
2026-04-27 12:27 50.11273 22.00997 714 ft 0 kts
2026-04-27 12:27 50.11276 22.00997 713 ft 0 kts
2026-04-27 12:27 50.11280 22.00997 713 ft 1 kts
2026-04-27 12:28 50.11285 22.00998 713 ft 1 kts
2026-04-27 12:28 50.11290 22.00998 713 ft 1 kts
2026-04-27 12:28 50.11294 22.00998 712 ft 1 kts
2026-04-27 12:28 50.11299 22.00998 711 ft 1 kts
2026-04-27 12:29 50.11304 22.00998 711 ft 1 kts
2026-04-27 12:29 50.11309 22.00999 711 ft 1 kts
2026-04-27 12:29 50.11314 22.00999 710 ft 1 kts
2026-04-27 12:29 50.11319 22.00999 709 ft 1 kts
2026-04-27 12:30 50.11324 22.01000 714 ft 1 kts
2026-04-27 12:30 50.11326 22.01000 714 ft 0 kts
2026-04-27 12:30 50.11325 22.01000 714 ft 0 kts